Regional Weather Roundup
Issued by NWS Sterling, VA

Home | Current Version | Previous Version | Graphics & Text | Print | Product List | Glossary On
Versions: 1 2 3 4 5 6 7 8 9 10 11 12 13 14 15 16 17 18 19 20 21 22 23 24 25 26 27 28 29 30 31 32 33 34 35 36 37 38 39 40 41 42 43 44 45 46 47 48 49 50
000
ASUS41 KLWX 200110
RWRLWX

REGIONAL WEATHER ROUNDUP
NATIONAL WEATHER SERVICE BALTIMORE MD/WASHINGTON DC
800 PM EST FRI DEC 19 2014

Note: "FAIR" indicates few or no clouds below 12,000 feet
with no significant weather and/or obstructions to visibility.
 TC=TEMPERATURE CELSIUS

 * =Non NWS site. Station does not report precipitation (e.g. rain,
    snow, etc.), thunder, or fog.

DCZ001-MDZ009-015-VAZ040>042-051-053>054-200200-
WASHINGTON METRO

CITY           SKY/WX    TMP DP  RH WIND       PRES   REMARKS
WASHINGTON NAT CLEAR     38  22  52 NW10      30.23R
DULLES         CLEAR     31  22  69 NW8       30.22S WCI  23
FT BELVOIR     CLEAR     33  22  64 W2        30.23R
QUANTICO       CLEAR     33  22  63 N7        30.25R
COLLEGE PARK*  CLEAR     36  25  64 NW8       30.22R
LEESBURG*      CLEAR     32  27  80 N6        30.23F
GAITHERSBURG*  CLEAR     30  19  64 NW8       30.24S WCI  23

$$

MDZ006>007-011-014-200200-
BALTIMORE METRO

CITY           SKY/WX    TMP DP  RH WIND       PRES   REMARKS
BWI AIRPORT    CLEAR     32  22  66 NW6       30.21R
MD SCIENCE CTR   N/A     36  22  56 MISG      30.21R
MARTIN STATE   CLEAR     34  27  75 W3        30.23R
ANNAPOLIS      CLEAR     37  24  59 NW8       30.21R
FORT MEADE*    CLEAR     30  23  74 W3        30.24R

$$

MDZ012-015-019>023-200200-
MARYLAND EASTERN SHORE

CITY           SKY/WX    TMP DP  RH WIND       PRES   REMARKS
OCEAN CITY     CLEAR     32  24  72 W3        30.18S
SALISBURY      CLEAR     32  23  69 S3        30.19S
BAY BRIDGE AP*   N/A     36  25  64 NW9       30.21R WCI  29
CAMBRIDGE*     CLEAR     32  27  80 CALM      30.20S

$$

MDZ017>025-200200-
SOUTHERN MARYLAND

CITY           SKY/WX    TMP DP  RH WIND       PRES   REMARKS
PATUXENT RIVER PTCLDY    32  22  66 W8        30.21R WCI  25
ST INIGOES     CLEAR     29  22  75 CALM      30.21S
LEONARDTOWN*   CLEAR     30  23  74 CALM      30.23R

$$

MDZ003>005-200200-
NORTH CENTRAL MARYLAND

CITY           SKY/WX    TMP DP  RH WIND       PRES   REMARKS
FREDERICK*     NOT AVBL
HAGERSTOWN APT CLEAR     29  20  69 NW8       30.22R WCI  21
WESTMINSTER*   PTCLDY    30  21  69 NW6       30.19R

$$

MDZ501>502-200200-
WESTERN MARYLAND

CITY           SKY/WX    TMP DP  RH WIND       PRES   REMARKS
OAKLAND*       CLOUDY    21 N/A N/A W5        30.14S
CUMBERLAND*    CLOUDY    34  21  60 CALM      30.28F

$$

VAZ025>031-200200-
SHENANDOAH VALLEY

CITY           SKY/WX    TMP DP  RH WIND       PRES   REMARKS
WINCHESTER*    CLEAR     32  19  59 W9        30.22S WCI  24
FRONT ROYAL*   FAIR      30  21  69 CALM      30.23R
LURAY*         FAIR      30  27  86 CALM      30.22R
NEW MARKET*    FAIR      24  21  85 CALM      30.22S
STAUNTON*      CLEAR     29  22  75 NE3       30.22S
WAYNESBORO*    FAIR      29  21  72 NW3       30.19R

$$

WVZ021-048>050-054>055-200200-
EASTERN WEST VIRGINIA PANHANDLE

CITY           SKY/WX    TMP DP  RH WIND       PRES   REMARKS
MARTINSBURG    PTCLDY    32  19  58 NW3       30.23R
PETERSBURG*    CLOUDY    32  22  67 CALM      30.26R

$$

VAZ036>039-050-200200-
CENTRAL FOOTHILLS

CITY           SKY/WX    TMP DP  RH WIND       PRES   REMARKS
CHARLOTTESVILL CLEAR     34  22  61 CALM      30.20R
CULPEPER*      CLEAR     34  25  69 N5        30.23R
ORANGE*        CLEAR     30  27  86 CALM      30.23R
GORDONSVILLE*  FAIR      29  24  81 CALM      30.21S
WARRENTON*     FAIR      33  27  81 CALM      30.22R

$$

VAZ055>057-200200-
NORTH AND CENTRAL PIEDMONT

CITY           SKY/WX    TMP DP  RH WIND       PRES   REMARKS
FREDERICKSBRG* CLEAR     35  25  64 CALM      30.23R
STAFFORD*      CLEAR     33  21  61 NW9       30.27R WCI  26

$$

NCZ024-NYZ072-PAZ021-071-VAZ022-071-200200-
OTHER REGIONAL OBSERVATIONS

CITY           SKY/WX    TMP DP  RH WIND       PRES   REMARKS
NEW YORK CITY  MOCLDY    32  19  58 NW8G17    30.17R WCI  25
PHILADELPHIA   CLEAR     34  21  59 N6        30.18S
PITTSBURGH     CLOUDY    30  21  69 W6        30.27R
ROANOKE        MOCLDY    37  22  54 N9        30.20R
RICHMOND       MOCLDY    36  23  59 NE3       30.22R
RALEIGH        MOCLDY    40  29  64 CALM      30.18S

$$

ANZ530>537-200200-
MARINE OBSERVATIONS

STATION/POSITION TIME  TEMP    WIND        PRES
                       AIR SEA DIR/SP/G
                 (UTC) (F)     (DEG/KT/KT) (MB)
THOMAS PT LIGHT  0100   37 41  300/  9/ 12 1024.1R
BALT KEY BRIDGE  0100   37     280/ 12/ 14 1022.9R
COVE POINT       0100   35     320/ 10/ 12 1022.7R
LEWISETTA        0100   38 42  320/  6/  8 1023.1R
SOLOMONS ISLAND  0100      43                N/A

$$



USA.gov is the U.S. government's official web portal to all federal, state and local government web resources and services.